Location: Arbon
(43.0005°N, 0.7472°E)
Time: 21:46:09
(UTC+00:00)

A-11 Canister half - Visible Passes

Search period start: 28 November 2021 00:00
Search period end: 08 December 2021 00:00
Orbit: 1516 x 1684 km, 47.2° (Epoch: 27 November)

Date Brightness Start Highest point End Pass type
(mag) Time Alt. Az. Time Alt. Az. Time Alt. Az.
28 Nov 11.9 05:31:57 10° SE 05:34:12 11° ESE 05:36:27 10° ESE visible
01 Dec 10.6 06:19:56 10° SSW 06:28:32 38° SE 06:37:24 10° ENE visible
02 Dec 10.7 05:57:16 10° SSW 06:05:40 36° SE 06:14:21 10° ENE visible
03 Dec 10.7 05:34:37 10° SSW 05:42:50 34° SE 05:51:18 10° ENE visible
04 Dec 10.7 05:12:00 10° S 05:20:00 31° SE 05:28:14 10° ENE visible
05 Dec 10.7 04:49:23 10° S 04:57:10 29° SE 05:05:09 10° ENE visible
06 Dec 10.7 04:26:49 10° S 04:34:20 27° SE 04:42:03 10° ENE visible
06 Dec 9.4 06:28:34 10° SW 06:38:08 74° SSE 06:48:05 10° ENE visible
07 Dec 10.7 04:04:17 10° S 04:11:31 25° SE 04:18:56 10° ENE visible
07 Dec 9.4 06:05:42 10° SW 06:15:13 71° SSE 06:25:06 10° ENE visible
